Regional Weather Roundup
Issued by NWS

Home | Current Version | Previous Version | Text Only | Print | Product List | Glossary On
Versions: 1 2 3 4 5 6 7 8 9 10 11 12 13 14 15 16 17 18 19 20 21 22 23 24 25 26 27 28 29 30 31 32 33 34 35 36 37 38 39 40 41 42 43 44 45 46 47 48 49 50
000
ASUS43 KIND 232009
RWRIN

WEATHER ROUNDUP FOR INDIANA
NATIONAL WEATHER SERVICE INDIANAPOLIS IN
400 PM EDT THU MAR 23 2017

NOTE: "FAIR" INDICATES FEW OR NO CLOUDS BELOW 12,000 FEET WITH NO
SIGNIFICANT WEATHER AND/OR OBSTRUCTIONS TO VISIBILITY.

* - STATION DOES NOT REPORT WEATHER SUCH AS PRECIPITATION OR FOG.

+ - STATION NOT QUALITY CONTROLLED BY THE NATIONAL WEATHER SERVICE.
    USE DATA WITH CAUTION...ESPECIALLY DEWPOINT AND RELATIVE
    HUMIDITY OBSERVATIONS.

INZ001>003-010>013-019-020-232100-
NORTHWEST INDIANA

CITY           SKY/WX    TMP DP  RH WIND       PRES   REMARKS
GARY /AIRPORT/ PTSUNNY   48  18  29 SE12G23   30.24F
KNOX *+        MOSUNNY   45  -4  13 SE17      30.26F
LA PORTE +     CLOUDY    44  22  40 S15G23    30.26F
MICHIGAN CITY+ CLOUDY    45  21  39 S7G21     30.25F
MONTICELLO +   PTSUNNY   50  25  37 SE8       30.25F
RENSSELAER +   CLOUDY    48  27  43 SE12      30.24F
VALPARAISO     PTSUNNY   47  21  35 S16G23    30.26F

$$

LMZ046-743>745-232100-
SOUTHERN LAKE MICHIGAN

STATION/POSITION TIME  TEMP    WIND        PRES    WAVE
                       AIR SEA DIR/SP/G            HT
                 (UTC) (F)     (DEG/KT/KT) (MB)    (FT)
BURNS HARBOR     1940   46     140/ 12/ 19 1024.7F
MICHIGAN CITY    1940   43     140/ 13/ 18   N/A

$$

INZ004-005-014>016-021>024-232100-
NORTH CENTRAL INDIANA

CITY           SKY/WX    TMP DP  RH WIND       PRES   REMARKS
ELKHART        SUNNY     45  19  36 S10       30.29F
GOSHEN         SUNNY     46  19  34 SE14G25   30.29F
LOGANSPORT +   CLOUDY    48  27  43 SE14G21   30.27F
PERU/GRISSOM   PTSUNNY   47  25  41 SE14      30.25F
ROCHESTER +    MOSUNNY   48  23  37 SE12      30.28F
SOUTH BEND     PTSUNNY   42  20  41 SE17      30.28F
WARSAW +       SUNNY     45  23  42 SE13G18   30.29F

$$

INZ006>009-017-018-025>027-232100-
NORTHEAST INDIANA

CITY           SKY/WX    TMP DP  RH WIND       PRES   REMARKS
ANGOLA *+      MOSUNNY   43  28  56 SE10      30.31F
AUBURN +       CLOUDY    45  19  36 SE7       30.33F
FORT WAYNE     PTSUNNY   46  22  38 SE14      30.32F
HUNTINGTON +   SUNNY     46  22  39 SE13      30.31F
KENDALLVILLE + CLOUDY    45  22  41 SE12G17   30.32F

$$

INZ028-029-035-036-043>045-051>053-232100-
WEST CENTRAL INDIANA

CITY           SKY/WX    TMP DP  RH WIND       PRES   REMARKS
CRAWFORDSVL +  CLOUDY    51  25  35 SE12      30.24F
GREENCASTLE +  CLOUDY    54  23  30 SE14      30.24F
LAFAYETTE      CLOUDY    51  24  34 S9G18     30.24F
TERRE HAUTE    CLOUDY    51  25  36 S13       30.25F

$$

INZ030>032-037>040-046>048-054>057-064-065-232100-
CENTRAL INDIANA

CITY           SKY/WX    TMP DP  RH WIND       PRES   REMARKS
ANDERSON       SUNNY     50  28  43 SE14      30.28F
CP ATTERBURY + MOSUNNY   57  23  26 SE13G18   30.27F
COLUMBUS       MOSUNNY   55  27  33 S9        30.28F
FISHERS *+     MOSUNNY   54  32  43 S10G17    30.26F
FRANKFORT +    MOSUNNY   57  27  31 S7        30.26F
GREENWOOD *+   MOSUNNY   55  27  33 SE8       30.27F
INDIANAPOLIS   PTSUNNY   54  24  31 SE16      30.26F
-EAGLE CREEK   SUNNY     54  23  30 SE13G18   30.25F
KOKOMO +       MOSUNNY   50  28  42 SE14      30.27F
MARION +       SUNNY     47  24  41 SE16      30.30F
MT COMFORT *+  PTSUNNY   54  27  35 SE14      30.27F
SHELBYVILLE    CLOUDY    57  25  29 SE12      30.27F
ZIONSVILLE +   SUNNY     51  24  35 S9        30.26F

$$

INZ033-034-041-042-049-050-058-059-232100-
EAST CENTRAL INDIANA

CITY           SKY/WX    TMP DP  RH WIND       PRES   REMARKS
MUNCIE         SUNNY     51  22  31 SE12G18   30.29F
RICHMOND +     SUNNY     48  27  43 SE9G16    30.30F

$$

INZ060-061-067>069-081>083-085>088-232100-
SOUTHWEST INDIANA

CITY           SKY/WX    TMP DP  RH WIND       PRES   REMARKS
EVANSVILLE     LGT RAIN  43  35  73 SE7       30.27F
HUNTINGBURG *+ LGT RAIN  48  30  49 S6        30.29F
WASHINGTON +   LGT RAIN  50  27  41 MISG      30.27F

$$

INZ062-063-066-070>080-084-089>092-232100-
SOUTH CENTRAL AND SOUTHEAST INDIANA

CITY           SKY/WX    TMP DP  RH WIND       PRES   REMARKS
BEDFORD +      MOSUNNY   55  19  24 E8        30.28F
BLOOMINGTON    PTSUNNY   55  22  27 S7G20     30.26F
MADISON *+     SUNNY     59  19  21 E5        30.30F
NORTH VERNON + SUNNY     57  19  23 S6        30.30F
SEYMOUR +      SUNNY     59  30  33 S6        30.28F

$$




USA.gov is the U.S. government's official web portal to all federal, state and local government web resources and services.